カタログに戻る

STARLINK-5792

運用中通信VLEO
NORAD 56035·PAYLOAD·🇺🇸 United States

打ち上げ Mar 24, 2023 から Cape Canaveral Space Force Station

Loading…

次のパス (今後24時間)

TLE

最新Source: CelesTrak SupGP

元期: Sep 14, 2026, 14:38 UTC

1 56035C 23042BB  26257.61020833 -.00024841  00000+0 -89983-3 0  2572
2 56035  43.0039  58.3086 0001742 272.9887 254.8480 15.27587506    15

AllMySatでSTARLINK-5792をリアルタイム追跡

Download on the App Store